Location: 22
(39.7117°N, 89.5929°W)
Time: 00:54:46
(UTC-05:00)

A-11 Canister half - Pass Details

Date: 11 June 2023
Orbit: 1524 x 1684 km, 47.3° (Epoch: 29 September)

Event Time Altitude Azimuth Distance (km) Brightness Sun altitude
Rises 21:11:31 0° 258° (WSW) 4,680 12.2 -7.9°
Reaches altitude 10° 21:14:37 10° 262° (W) 3,691 11.6 -8.4°
Maximum altitude 21:23:49 64° 343° (NNW) 1,664 9.5 -9.7°
Drops below altitude 10° 21:33:07 10° 64° (ENE) 3,722 10.8 -11.1°
Sets 21:36:16 0° 68° (ENE) 4,722 11.3 -11.5°
